N6ZQK Weather Reports


Display with metric or nautical units.
time (UTC)temp
F
wind
direction
speed
MPH
gust
MPH
rain 1hr
in
rain 24hr
in
rain mn
in
humidity
%
barometer
mb
20260904200603 58 154 1.0 7.0 0.00 0.79 0.74 84 1012.4
20260904200218 58 144 2.0 10.0 0.00 0.79 0.74 84 1012.5
20260904195618 58 161 3.0 10.0 0.00 0.79 0.74 82 1012.4
20260904194803 58 161 4.0 9.0 0.00 0.79 0.74 84 1012.5
20260904194203 58 146 4.0 9.0 0.00 0.79 0.74 83 1012.6
20260904193817 58 149 4.0 10.0 0.00 0.79 0.74 82 1012.6
20260904193003 58 164 3.0 13.0 0.00 0.79 0.74 83 1012.7
20260904192403 57 155 3.0 13.0 0.00 0.79 0.74 86 1012.8
20260904191803 57 134 3.0 9.0 0.00 0.79 0.74 87 1012.9
20260904191203 56 117 3.0 9.0 0.00 0.79 0.74 89 1012.9
20260904190603 56 113 3.0 9.0 0.00 0.79 0.74 89 1012.9
20260904190004 56 134 2.0 6.0 0.00 0.79 0.74 90 1012.9
20260904185403 56 134 3.0 7.0 0.00 0.79 0.74 92 1012.9
20260904184803 55 133 4.0 9.0 0.00 0.79 0.74 90 1012.9
20260904184203 55 141 3.0 9.0 0.00 0.79 0.74 92 1012.9
20260904183603 55 172 1.0 6.0 0.00 0.79 0.74 93 1012.9
20260904183003 55 176 2.0 6.0 0.00 0.79 0.74 92 1012.9
20260904182403 55 176 1.0 5.0 0.00 0.79 0.74 93 1012.9
20260904181804 54 172 3.0 7.0 0.00 0.79 0.74 92 1013.1
20260904181203 54 174 4.0 9.0 0.00 0.79 0.74 92 1013.1
20260904180603 54 170 3.0 9.0 0.00 0.79 0.74 92 1013.0
20260904180003 54 157 2.0 9.0 0.00 0.79 0.74 93 1013.0
20260904175617 54 155 1.0 6.0 0.00 0.79 0.74 93 1013.0
20260904175017 54 155 1.0 6.0 0.00 0.79 0.74 93 1013.1
20260904174203 53 163 3.0 7.0 0.00 0.79 0.74 93 1013.1
20260904173603 53 167 4.0 12.0 0.00 0.79 0.74 93 1013.0
20260904173217 53 164 4.0 12.0 0.00 0.79 0.74 93 1013.0
20260904172403 54 165 2.0 12.0 0.00 0.79 0.74 95 1012.9
20260904171803 53 148 3.0 10.0 0.01 0.79 0.74 94 1012.8
20260904171418 53 149 3.0 10.0 0.02 0.79 0.74 94 1012.7
20260904170604 53 166 3.0 9.0 0.06 0.79 0.74 94 1012.7
20260904170003 53 166 2.0 7.0 0.06 0.79 0.74 95 1012.7
20260904165403 53 178 2.0 6.0 0.06 0.79 0.74 94 1012.6
20260904164803 53 171 3.0 9.0 0.06 0.79 0.74 94 1012.6
20260904164418 53 164 4.0 10.0 0.06 0.79 0.74 94 1012.6
20260904163603 53 165 4.0 12.0 0.06 0.79 0.74 94 1012.5
20260904163003 53 154 3.0 10.0 0.06 0.79 0.74 94 1012.4
20260904162403 53 158 4.0 10.0 0.06 0.79 0.74 94 1012.3
20260904161804 53 157 2.0 10.0 0.05 0.78 0.73 95 1012.1
20260904161203 53 159 2.0 7.0 0.03 0.76 0.71 95 1012.2
20260904160603 53 174 3.0 7.0 0.01 0.74 0.68 95 1012.2
20260904160004 53 171 2.0 7.0 0.02 0.74 0.68 95 1012.2
20260904155618 53 168 3.0 8.0 0.03 0.74 0.68 95 1012.3
20260904154803 53 165 4.0 9.0 0.03 0.74 0.68 95 1012.1
20260904154203 53 158 4.0 10.0 0.05 0.74 0.68 95 1012.0
20260904153603 53 156 4.0 10.0 0.06 0.74 0.68 94 1012.1
20260904153217 53 157 4.0 10.0 0.06 0.74 0.68 94 1012.0
20260904152618 53 172 4.0 7.0 0.06 0.74 0.68 94 1012.0
20260904151803 53 184 4.0 9.0 0.06 0.74 0.68 94 1012.0
20260904151204 53 189 2.0 7.0 0.05 0.72 0.67 95 1012.1
20260904150603 53 191 3.0 10.0 0.05 0.72 0.67 95 1012.0
20260904150004 53 192 3.0 10.0 0.03 0.71 0.66 95 1011.8
20260904145403 53 187 2.0 7.0 0.02 0.70 0.65 95 1011.5
20260904144803 53 186 1.0 5.0 0.03 0.70 0.65 95 1011.5
20260904144203 53 186 1.0 5.0 0.02 0.69 0.64 95 1011.4
20260904143603 53 186 0.0 3.0 0.01 0.68 0.63 95 1011.4
20260904143218 53 186 0.0 3.0 0.01 0.68 0.63 95 1011.3
20260904142403 53 186 1.0 4.0 0.02 0.68 0.63 95 1011.1
20260904141803 53 191 2.0 7.0 0.03 0.68 0.63 95 1011.1
20260904141203 53 188 2.0 6.0 0.03 0.68 0.63 95 1011.0
20260904140603 53 179 2.0 7.0 0.05 0.68 0.63 95 1010.8
20260904140004 53 178 2.0 7.0 0.05 0.68 0.63 95 1010.8
20260904135403 53 173 2.0 9.0 0.05 0.68 0.63 94 1010.7
20260904134803 54 171 3.0 9.0 0.07 0.67 0.61 94 1010.5
20260904134203 54 175 3.0 10.0 0.07 0.67 0.61 95 1010.5
20260904133604 54 170 2.0 10.0 0.07 0.67 0.61 95 1010.5
20260904133218 54 164 2.0 6.0 0.07 0.67 0.61 95 1010.5
20260904132403 54 165 2.0 7.0 0.07 0.66 0.60 95 1010.4
20260904131803 53 176 3.0 7.0 0.06 0.64 0.59 95 1010.5
20260904131203 53 170 3.0 10.0 0.06 0.64 0.59 94 1010.5
20260904130603 54 162 3.0 10.0 0.06 0.63 0.58 94 1010.4
20260904130003 54 169 3.0 10.0 0.06 0.63 0.58 94 1010.4
20260904125403 54 199 2.0 7.0 0.07 0.63 0.58 94 1010.2
20260904125017 54 203 2.0 7.0 0.05 0.61 0.56 95 1010.2
20260904124203 54 184 2.0 9.0 0.03 0.60 0.55 95 1010.3
20260904123603 54 179 4.0 12.0 0.05 0.60 0.55 94 1010.2
20260904123217 54 179 3.0 12.0 0.05 0.60 0.55 95 1010.1
20260904122403 54 192 2.0 9.0 0.05 0.59 0.53 94 1010.2
20260904121803 54 191 4.0 10.0 0.06 0.59 0.53 94 1010.1
20260904121203 54 197 4.0 10.0 0.07 0.59 0.53 94 1010.1
20260904120603 54 205 2.0 9.0 0.07 0.57 0.52 94 1010.1
20260904120004 54 213 2.0 6.0 0.08 0.57 0.52 94 1010.0
20260904115403 54 232 2.0 7.0 0.10 0.56 0.51 94 1009.9
20260904114804 54 221 3.0 14.0 0.14 0.56 0.51 94 1010.0
20260904114203 54 226 3.0 14.0 0.16 0.56 0.51 94 1010.0
20260904113818 54 222 3.0 10.0 0.17 0.55 0.50 94 1010.0
20260904113003 54 222 3.0 10.0 0.17 0.54 0.49 94 1009.7
20260904112403 54 210 3.0 12.0 0.20 0.54 0.49 94 1009.8
20260904111803 55 207 5.0 14.0 0.23 0.53 0.48 94 1009.7
20260904111204 55 215 4.0 13.0 0.25 0.52 0.46 94 1009.7
20260904110817 55 214 3.0 9.0 0.28 0.52 0.46 94 1009.7
20260904110003 55 216 4.0 13.0 0.29 0.49 0.44 94 1009.5
20260904105403 55 207 3.0 12.0 0.26 0.46 0.40 94 1009.5
20260904105018 55 206 3.0 12.0 0.23 0.43 0.38 94 1009.4
20260904104203 55 216 4.0 10.0 0.23 0.40 0.34 94 1009.4
20260904103817 55 212 4.0 14.0 0.21 0.38 0.32 94 1009.4
20260904103003 56 229 3.0 12.0 0.20 0.37 0.30 94 1009.2
20260904102403 56 226 5.0 17.0 0.18 0.34 0.28 94 1009.2
20260904101803 56 223 3.0 17.0 0.14 0.30 0.23 94 1009.1
20260904101417 56 206 2.0 7.0 0.13 0.28 0.21 94 1009.1
20260904100603 56 188 2.0 7.0 0.08 0.23 0.16 94 1009.1
20260904100003 56 182 4.0 13.0 0.06 0.21 0.14 94 1009.0
20260904095618 56 179 5.0 13.0 0.05 0.20 0.13 94 1009.0
20260904094803 56 182 3.0 12.0 0.03 0.18 0.12 94 1009.0
20260904094203 56 185 3.0 10.0 0.02 0.17 0.10 94 1009.0
20260904093603 56 180 4.0 13.0 0.02 0.17 0.10 94 1009.0
20260904093219 56 179 5.0 13.0 0.02 0.17 0.10 94 1009.0
20260904092618 56 176 5.0 13.0 0.01 0.16 0.09 94 1009.0
20260904091803 56 181 5.0 13.0 0.02 0.16 0.09 94 1009.0
20260904091417 56 184 5.0 13.0 0.01 0.15 0.08 94 1009.1
20260904090603 56 177 5.0 13.0 0.01 0.15 0.08 94 1009.1
20260904090003 56 181 5.0 12.0 0.01 0.15 0.08 94 1009.2
20260904085403 56 183 5.0 13.0 0.02 0.15 0.08 94 1009.3
20260904084803 56 175 5.0 13.0 0.02 0.15 0.08 94 1009.3
20260904084417 56 172 5.0 12.0 0.02 0.15 0.08 94 1009.4
20260904083603 56 183 5.0 13.0 0.02 0.15 0.08 94 1009.4
20260904083003 56 172 5.0 13.0 0.02 0.15 0.08 94 1009.5
20260904082403 56 176 5.0 12.0 0.03 0.15 0.08 94 1009.5
20260904081803 56 186 5.0 13.0 0.02 0.14 0.07 94 1009.5
20260904081203 56 179 4.0 13.0 0.03 0.14 0.07 94 1009.5
20260904080603 56 178 6.0 16.0 0.05 0.14 0.07 94 1009.5
20260904080003 56 180 4.0 13.0 0.07 0.14 0.07 94 1009.3
20260904075403 56 178 5.0 12.0 0.07 0.13 0.06 93 1009.2
20260904074803 56 179 4.0 10.0 0.08 0.13 0.06 93 1009.4
20260904074203 56 173 3.0 9.0 0.08 0.13 0.06 93 1009.4
20260904073603 57 182 2.0 12.0 0.09 0.13 0.06 94 1009.4
20260904073218 57 184 2.0 12.0 0.09 0.13 0.06 93 1009.5
20260904072403 56 183 3.0 12.0 0.09 0.12 0.05 93 1009.5
20260904071803 57 183 3.0 12.0 0.09 0.12 0.05 93 1009.5
20260904071203 57 180 3.0 10.0 0.08 0.10 0.03 93 1009.4
20260904070603 57 177 4.0 10.0 0.07 0.09 0.02 93 1009.5
20260904070004 57 179 4.0 10.0 0.05 0.07 0.00 93 1009.4
20260904065403 57 183 3.0 10.0 0.03 0.06 0.06 93 1009.4
20260904064803 57 186 3.0 10.0 0.02 0.05 0.05 93 1009.4
20260904064203 57 181 3.0 15.0 0.03 0.05 0.05 92 1009.4
20260904063603 57 188 5.0 14.0 0.02 0.03 0.03 92 1009.3
20260904063003 57 184 5.0 14.0 0.03 0.03 0.03 92 1009.3
20260904062403 57 183 3.0 10.0 0.02 0.02 0.02 92 1009.4
20260904061803 57 187 3.0 9.0 0.02 0.02 0.02 92 1009.4
20260904061203 57 180 3.0 9.0 0.02 0.02 0.02 92 1009.4
20260904060603 57 173 4.0 10.0 0.02 0.02 0.02 92 1009.4
20260904060004 57 172 4.0 12.0 0.02 0.02 0.02 91 1009.6
20260904055403 57 173 3.0 12.0 0.02 0.02 0.02 91 1009.6
20260904055018 57 172 3.0 9.0 0.02 0.02 0.02 91 1009.7
20260904054418 57 173 4.0 9.0 0.01 0.01 0.01 91 1009.7
20260904053603 57 174 3.0 9.0 0.01 0.01 0.01 91 1009.8
20260904053003 57 179 3.0 9.0 0.00 0.00 0.00 91 1009.8
20260904052403 57 171 3.0 9.0 0.00 0.00 0.00 90 1009.9
20260904051803 57 166 3.0 9.0 0.00 0.00 0.00 90 1009.9
20260904051203 57 167 3.0 9.0 0.00 0.00 0.00 90 1009.9
20260904050604 58 170 3.0 6.0 0.00 0.00 0.00 90 1009.9
20260904050003 58 173 2.0 6.0 0.00 0.00 0.00 90 1010.1
20260904045403 58 174 2.0 7.0 0.00 0.00 0.00 90 1010.2
20260904045018 58 172 3.0 7.0 0.00 0.00 0.00 90 1010.2
20260904044203 58 166 2.0 7.0 0.00 0.00 0.00 90 1010.3
20260904043604 58 158 2.0 7.0 0.00 0.00 0.00 92 1010.2
20260904043003 58 161 3.0 8.0 0.00 0.00 0.00 92 1010.2
20260904042403 58 162 3.0 8.0 0.00 0.00 0.00 89 1010.2
20260904041803 58 157 3.0 7.0 0.00 0.00 0.00 89 1010.2
20260904041417 58 163 3.0 7.0 0.00 0.00 0.00 89 1010.2
20260904040603 58 185 2.0 7.0 0.00 0.00 0.00 89 1010.3
20260904040003 58 196 1.0 6.0 0.00 0.00 0.00 89 1010.3
20260904035403 58 181 3.0 7.0 0.00 0.00 0.00 89 1010.2
20260904034804 58 181 3.0 7.0 0.00 0.00 0.00 89 1010.1
20260904034203 58 183 2.0 7.0 0.00 0.00 0.00 88 1010.1
20260904033603 58 185 2.0 6.0 0.00 0.00 0.00 88 1010.1
20260904033003 58 185 3.0 7.0 0.00 0.00 0.00 88 1010.1
20260904032403 58 193 3.0 10.0 0.00 0.00 0.00 87 1010.1
20260904031803 59 203 2.0 10.0 0.00 0.00 0.00 87 1010.1
20260904031203 59 209 2.0 10.0 0.00 0.00 0.00 87 1010.1
20260904030604 59 208 4.0 10.0 0.00 0.00 0.00 86 1010.0
20260904030218 59 210 4.0 10.0 0.00 0.00 0.00 86 1010.0
20260904025403 59 220 3.0 10.0 0.00 0.00 0.00 85 1010.0
20260904024804 59 218 2.0 9.0 0.00 0.00 0.00 85 1010.0
20260904024203 59 226 2.0 7.0 0.00 0.00 0.00 85 1010.0
20260904023604 59 227 3.0 10.0 0.00 0.00 0.00 85 1010.0
20260904023003 59 231 3.0 9.0 0.00 0.00 0.00 85 1010.0
20260904022403 60 239 3.0 9.0 0.00 0.00 0.00 84 1010.0
20260904021803 60 236 3.0 12.0 0.00 0.00 0.00 84 1010.0
20260904021421 60 225 3.0 12.0 0.00 0.00 0.00 84 1010.0
20260904020603 60 221 3.0 7.0 0.00 0.00 0.00 84 1010.0
20260904020003 60 223 4.0 12.0 0.00 0.00 0.00 83 1010.0
20260904015403 60 222 3.0 10.0 0.00 0.00 0.00 83 1010.1
20260904014803 60 213 3.0 9.0 0.00 0.00 0.00 83 1010.1
20260904014203 60 206 4.0 12.0 0.00 0.00 0.00 83 1010.1
20260904013604 60 210 2.0 12.0 0.00 0.00 0.00 82 1010.2
20260904013003 60 208 1.0 6.0 0.00 0.00 0.00 82 1010.2
20260904012403 60 209 2.0 9.0 0.00 0.00 0.00 82 1010.3
20260904011803 60 214 3.0 9.0 0.00 0.00 0.00 81 1010.3
20260904011203 60 213 3.0 9.0 0.00 0.00 0.00 81 1010.4
20260904010603 60 214 3.0 9.0 0.00 0.00 0.00 81 1010.5
20260904010003 60 217 1.0 6.0 0.00 0.00 0.00 81 1010.6
20260904005403 60 213 1.0 5.0 0.00 0.00 0.00 81 1010.6
20260904004803 60 222 3.0 10.0 0.00 0.00 0.00 80 1010.6
20260904004203 61 236 2.0 9.0 0.00 0.00 0.00 80 1010.6
20260904003603 61 239 3.0 9.0 0.00 0.00 0.00 80 1010.7
20260904003003 61 244 1.0 6.0 0.00 0.00 0.00 80 1010.7
20260904002617 61 207 1.0 4.0 0.00 0.00 0.00 80 1010.6
20260904001803 61 192 2.0 7.0 0.00 0.00 0.00 79 1010.7
20260904001203 61 207 3.0 6.0 0.00 0.00 0.00 79 1010.6
20260904000603 61 212 2.0 6.0 0.00 0.00 0.00 79 1010.7
20260904000003 61 216 1.0 4.0 0.00 0.00 0.00 79 1010.7
20260903235403 61 216 1.0 5.0 0.00 0.00 0.00 79 1010.7
20260903234804 61 214 1.0 5.0 0.00 0.00 0.00 79 1010.8
20260903234203 61 230 1.0 6.0 0.00 0.00 0.00 78 1010.8
20260903233817 61 229 1.0 6.0 0.00 0.00 0.00 78 1010.8
20260903233003 61 260 1.0 4.0 0.00 0.00 0.00 78 1010.9
20260903232403 61 266 1.0 4.0 0.00 0.00 0.00 77 1011.0
20260903231803 62 244 0.0 4.0 0.00 0.00 0.00 77 1010.9
20260903231203 62 233 1.0 4.0 0.00 0.00 0.00 77 1010.9
20260903230603 62 237 2.0 7.0 0.00 0.00 0.00 76 1011.0
20260903230003 62 235 3.0 10.0 0.00 0.00 0.00 75 1011.1
20260903225403 62 220 2.0 9.0 0.00 0.00 0.00 75 1011.1
20260903224803 62 230 2.0 9.0 0.00 0.00 0.00 74 1011.1
20260903224203 62 223 2.0 9.0 0.00 0.00 0.00 74 1011.2
20260903223603 62 220 3.0 10.0 0.00 0.00 0.00 73 1011.1
20260903223003 62 233 3.0 10.0 0.00 0.00 0.00 73 1011.2
20260903222618 62 226 3.0 9.0 0.00 0.00 0.00 73 1011.3
20260903221803 62 214 4.0 12.0 0.00 0.00 0.00 73 1011.4
20260903221203 63 207 5.0 12.0 0.00 0.00 0.00 71 1011.4
20260903220816 63 203 4.0 12.0 0.00 0.00 0.00 71 1011.4
20260903220003 63 238 2.0 7.0 0.00 0.00 0.00 71 1011.5
20260903215618 63 231 3.0 12.0 0.00 0.00 0.00 71 1011.6
20260903214803 63 234 4.0 13.0 0.00 0.00 0.00 71 1011.6
20260903214203 63 238 5.0 14.0 0.00 0.00 0.00 70 1011.6
20260903213603 63 234 6.0 14.0 0.00 0.00 0.00 69 1011.7
20260903213003 63 234 4.0 14.0 0.00 0.00 0.00 68 1011.7
20260903212403 63 235 4.0 14.0 0.00 0.00 0.00 68 1011.6
20260903211803 63 239 4.0 14.0 0.00 0.00 0.00 67 1011.6
20260903211203 63 229 4.0 12.0 0.00 0.00 0.00 67 1011.6
20260903210818 63 218 3.0 12.0 0.00 0.00 0.00 67 1011.6
20260903210003 63 224 4.0 13.0 0.00 0.00 0.00 67 1011.5
20260903205617 63 235 5.0 13.0 0.00 0.00 0.00 66 1011.4
20260903204803 63 237 4.0 9.0 0.00 0.00 0.00 67 1011.5
20260903204203 63 236 5.0 14.0 0.00 0.00 0.00 67 1011.5
20260903203603 63 217 5.0 14.0 0.00 0.00 0.00 67 1011.5
20260903203004 63 211 4.0 15.0 0.00 0.00 0.00 67 1011.5
20260903202403 63 210 5.0 15.0 0.00 0.00 0.00 66 1011.6
20260903201803 63 218 5.0 10.0 0.00 0.00 0.00 66 1011.6
20260903201418 63 225 3.0 10.0 0.00 0.00 0.00 65 1011.8